Location: Moulis
(42.9609°N, 1.0909°E)
Time: 23:37:48
(UTC+00:00)

USA 238 DEB - Pass Details

Date: 11 December 2025
Orbit: 883 x 1328 km, 63.4° (Epoch: 10 January)

Event Time Altitude Azimuth Distance (km) Brightness Sun altitude
Rises 18:29:41 0° 226° (SW) 3,511 7.3 -22.7°
Reaches altitude 10° 18:32:08 10° 229° (SW) 2,604 6.5 -23.1°
Maximum altitude 18:38:07 63° 311° (NW) 1,080 3.8 -24.2°
Enters shadow 18:41:22 30° 21° (NNE) 1,714 4.5 -24.8°
